DW7229 Weather Reports


time (UTC)temp
F
wind
direction
speed
knots
gust
knots
rain 1hr
in
rain 24hr
in
rain mn
in
humidity
%
barometer
mb
20260509225030 47 0.0 0.0 0.00 0.00 0.00 81 1012.3
20260509224015 47 0.0 0.0 0.00 0.00 0.00 81 1012.4
20260509223018 47 0.0 0.0 0.00 0.00 0.00 80 1012.4
20260509222022 48 0.0 0.0 0.00 0.00 0.00 80 1012.6
20260509221025 48 0.0 0.0 0.00 0.00 0.00 80 1012.6
20260509220028 48 0.0 0.0 0.00 0.00 0.00 80 1012.5
20260509215032 48 0.0 0.0 0.00 0.00 0.00 80 1012.6
20260509214057 48 0.0 0.0 0.00 0.00 0.00 80 1012.7
20260509213020 48 0.0 0.0 0.00 0.00 0.00 80 1012.8
20260509212023 48 0.0 0.0 0.00 0.00 0.00 80 1012.6
20260509211027 48 0.0 0.0 0.00 0.00 0.00 80 1012.6
20260509210030 48 0.0 0.0 0.00 0.00 0.00 80 1012.6
20260509205035 49 0.0 0.0 0.00 0.00 0.00 80 1012.8
20260509204018 49 0.0 0.0 0.00 0.00 0.00 80 1012.9
20260509203042 49 0.0 0.0 0.00 0.00 0.00 80 1013.0
20260509202019 49 0.0 0.0 0.00 0.00 0.00 80 1013.2
20260509201016 50 0.0 0.0 0.00 0.00 0.00 80 1013.0
20260509200032 50 0.0 0.0 0.00 0.00 0.00 80 1012.5
20260509195037 50 0.0 0.0 0.00 0.00 0.00 81 1012.2
20260509194040 49 0.0 0.0 0.00 0.00 0.00 82 1012.4
20260509193043 49 0.0 0.0 0.00 0.00 0.00 82 1012.7
20260509192047 49 0.0 0.0 0.00 0.00 0.00 82 1012.5
20260509191030 48 0.0 0.0 0.00 0.00 0.00 82 1012.8
20260509190015 49 0.0 0.0 0.00 0.00 0.00 82 1013.0
20260509185018 48 0.0 0.0 0.00 0.00 0.00 80 1013.3
20260509184021 49 0.0 0.0 0.00 0.00 0.00 77 1013.4
20260509183025 49 0.0 0.0 0.00 0.00 0.00 77 1013.4
20260509182028 49 0.0 0.0 0.00 0.00 0.00 76 1013.6
20260509181031 49 0.0 0.0 0.00 0.00 0.00 76 1013.7
20260509180017 49 0.0 0.0 0.00 0.00 0.00 76 1013.7
20260509175020 49 0.0 0.0 0.00 0.00 0.00 76 1013.7
20260509174023 49 0.0 0.0 0.00 0.00 0.00 76 1013.9
20260509173027 49 0.0 0.0 0.00 0.00 0.00 76 1014.1
20260509172030 49 0.0 0.0 0.00 0.00 0.00 76 1014.0
20260509171035 49 0.0 0.0 0.00 0.00 0.00 76 1014.2
20260509170039 49 0.0 0.0 0.00 0.00 0.00 76 1014.1
20260509165022 49 0.0 0.0 0.00 0.00 0.00 76 1014.0
20260509164039 49 0.0 0.0 0.00 0.00 0.00 76 1013.9
20260509163036 49 0.0 0.0 0.00 0.00 0.00 75 1013.9
20260509162032 49 0.0 0.0 0.00 0.00 0.00 75 1014.1
20260509161017 49 0.0 0.0 0.00 0.00 0.00 75 1014.3
20260509160020 49 0.0 0.0 0.00 0.00 0.00 75 1014.7
20260509155023 49 0.0 0.0 0.00 0.00 0.00 75 1014.7
20260509154027 49 0.0 0.0 0.00 0.00 0.00 75 1014.7
20260509153030 49 0.0 0.0 0.00 0.00 0.00 74 1014.7
20260509152015 49 0.0 0.0 0.00 0.00 0.00 74 1014.8
20260509151039 50 0.0 0.0 0.00 0.00 0.00 74 1015.0
20260509150022 50 0.0 0.0 0.00 0.00 0.00 74 1015.0
20260509145105 50 0.0 0.0 0.00 0.00 0.00 74 1015.1
20260509144028 50 0.0 0.0 0.00 0.00 0.00 73 1015.0
20260509143032 50 0.0 0.0 0.00 0.00 0.00 73 1015.0
20260509142017 50 0.0 0.0 0.00 0.00 0.00 71 1014.9
20260509141020 51 0.0 0.0 0.00 0.00 0.00 69 1014.8
20260509140043 51 0.0 0.0 0.00 0.00 0.00 66 1014.5
20260509135027 51 0.0 0.0 0.00 0.00 0.00 66 1014.6
20260509134030 52 0.0 0.0 0.00 0.00 0.00 63 1014.6
20260509133015 52 0.0 0.0 0.00 0.00 0.00 62 1014.5
20260509132019 52 0.0 0.0 0.00 0.00 0.00 58 1014.6
20260509131022 52 0.0 0.0 0.00 0.00 0.00 54 1014.6
20260509130019 52 0.0 0.0 0.00 0.00 0.00 59 1014.7
20260509125017 51 0.0 0.0 0.00 0.00 0.00 63 1014.8
20260509124032 50 0.0 0.0 0.00 0.00 0.00 63 1014.8
20260509123017 50 0.0 0.0 0.00 0.00 0.00 64 1014.8
20260509122020 49 0.0 0.0 0.00 0.00 0.00 66 1014.6
20260509121023 48 0.0 0.0 0.00 0.00 0.00 66 1014.7
20260509120027 47 0.0 0.0 0.00 0.00 0.00 68 1014.7
20260509115030 46 0.0 0.0 0.00 0.00 0.00 69 1014.8
20260509114015 45 0.0 0.0 0.00 0.00 0.00 70 1014.8
20260509113059 45 0.0 0.0 0.00 0.00 0.00 72 1014.8
20260509112022 44 0.0 0.0 0.00 0.00 0.00 73 1014.9
20260509111025 42 0.0 0.0 0.00 0.00 0.00 73 1014.8
20260509110029 41 0.0 0.0 0.00 0.00 0.00 74 1014.8
20260509105112 40 0.0 0.0 0.00 0.00 0.00 75 1014.8
20260509104037 39 0.0 0.0 0.00 0.00 0.00 75 1014.8
20260509103021 39 0.0 0.0 0.00 0.00 0.00 75 1014.7
20260509102023 38 0.0 0.0 0.00 0.00 0.00 76 1014.5
20260509101027 37 0.0 0.0 0.00 0.00 0.00 76 1014.4
20260509100030 36 0.0 0.0 0.00 0.00 0.00 76 1014.2
20260509095035 35 0.0 0.0 0.00 0.00 0.00 76 1014.1
20260509094039 35 0.0 0.0 0.00 0.00 0.00 76 1014.1
20260509093022 35 0.0 0.0 0.00 0.00 0.00 76 1014.2
20260509092019 34 0.0 0.0 0.00 0.00 0.00 76 1014.1
20260509091016 35 0.0 0.0 0.00 0.00 0.00 76 1015.4
20260509090032 35 0.0 0.0 0.00 0.00 0.00 76 1013.9
20260509085016 35 0.0 0.0 0.00 0.00 0.00 75 1013.7
20260509084020 35 0.0 0.0 0.00 0.00 0.00 75 1013.7
20260509083023 35 0.0 0.0 0.00 0.00 0.00 75 1013.7
20260509082027 35 0.0 0.0 0.00 0.00 0.00 75 1013.7
20260509081030 36 0.0 0.0 0.00 0.00 0.00 75 1013.7
20260509080015 35 0.0 0.0 0.00 0.00 0.00 74 1013.8
20260509075039 36 0.0 0.0 0.00 0.00 0.00 74 1013.6
20260509074022 36 0.0 0.0 0.00 0.00 0.00 74 1013.5
20260509073045 36 0.0 0.0 0.00 0.00 0.00 74 1013.5
20260509072049 36 0.0 0.0 0.00 0.00 0.00 73 1013.5
20260509071032 37 0.0 0.0 0.00 0.00 0.00 73 1013.4
20260509070017 36 0.0 0.0 0.00 0.00 0.00 72 1013.6
20260509065020 37 0.0 0.0 0.00 0.00 0.00 72 1013.7
20260509064023 37 0.0 0.0 0.00 0.00 0.00 72 1013.7
20260509063027 37 0.0 0.0 0.00 0.00 0.00 71 1013.7
20260509062030 37 0.0 0.0 0.00 0.00 0.00 70 1013.7
20260509061015 38 0.0 0.0 0.00 0.00 0.00 71 1013.6
20260509060018 38 0.0 0.0 0.00 0.00 0.00 70 1013.6
20260509055022 39 0.0 0.0 0.00 0.00 0.00 70 1013.5
20260509054019 38 0.0 0.0 0.00 0.00 0.00 69 1013.5
20260509053017 39 0.0 0.0 0.00 0.00 0.00 69 1013.4
20260509052032 39 0.0 0.0 0.00 0.00 0.00 69 1013.4
20260509051017 39 0.0 0.0 0.00 0.00 0.00 69 1013.4
20260509050020 39 0.0 0.0 0.00 0.00 0.00 68 1013.4
20260509045024 39 0.0 0.0 0.00 0.00 0.00 68 1013.3
20260509044027 40 0.0 0.0 0.00 0.00 0.00 66 1013.3
20260509043030 40 0.0 0.0 0.00 0.00 0.00 65 1013.2
20260509042136 41 0.0 0.0 0.00 0.00 0.00 65 1013.2
20260509041019 41 0.0 0.0 0.00 0.00 0.00 64 1013.3
20260509040022 41 0.0 0.0 0.00 0.00 0.00 62 1013.1
20260509035025 42 0.0 0.0 0.00 0.00 0.00 61 1013.0
20260509034028 43 0.0 0.0 0.00 0.00 0.00 61 1013.0
20260509033032 43 0.0 0.0 0.00 0.00 0.00 59 1013.0
20260509032017 44 0.0 0.0 0.00 0.00 0.00 59 1012.8
20260509031020 44 0.0 0.0 0.00 0.00 0.00 58 1012.7
20260509030023 45 0.0 0.0 0.00 0.00 0.00 57 1012.6
20260509025026 45 0.0 0.0 0.00 0.00 0.00 56 1012.6
20260509024030 46 0.0 0.0 0.00 0.00 0.00 55 1012.5
20260509023015 47 0.0 0.0 0.00 0.00 0.00 53 1012.4
20260509022018 47 0.0 0.0 0.00 0.00 0.00 52 1012.5
20260509021022 48 0.0 0.0 0.00 0.00 0.00 49 1012.3
20260509020019 49 0.0 0.0 0.00 0.00 0.00 48 1012.0
20260509015017 50 0.0 0.0 0.00 0.00 0.00 47 1011.9
20260509014032 51 0.0 0.0 0.00 0.00 0.00 44 1011.7
20260509013057 51 0.0 0.0 0.00 0.00 0.00 43 1011.6
20260509012020 51 248 0.9 2.6 0.00 0.00 0.00 43 1011.4
20260509011023 51 265 0.9 6.1 0.00 0.00 0.00 42 1011.0
20260509010027 52 337 0.0 1.7 0.00 0.00 0.00 42 1010.8
20260509005030 52 261 0.9 3.5 0.00 0.00 0.00 42 1010.7
20260509004015 52 23 0.0 2.6 0.00 0.00 0.00 40 1010.5
20260509003039 53 0.0 0.0 0.00 0.00 0.00 39 1010.4
20260509002022 53 0.0 0.0 0.00 0.00 0.00 38 1010.2
20260509001025 53 254 0.9 4.3 0.00 0.00 0.00 37 1010.0
20260509000028 54 203 0.0 0.9 0.00 0.00 0.00 37 1009.8
20260508235032 55 0.0 0.0 0.00 0.00 0.00 36 1009.5
20260508234017 55 0.0 1.7 0.00 0.00 0.00 35 1009.4
20260508233040 56 45 0.0 0.9 0.00 0.00 0.00 34 1009.4
20260508232024 57 247 1.7 4.3 0.00 0.00 0.00 33 1009.1
20260508231027 57 90 0.9 2.6 0.00 0.00 0.00 32 1008.9
20260508230111 58 203 0.9 5.2 0.00 0.00 0.00 30 1009.0